RH
11 8 11 10 8 8 10 12 12 11 11 14 32 68 76 90 91 97 84 66 90 64 75 68 98 68 57 15 25 9 15 26
14 12 13 12 9 10 12 14 14 13 12 18 28 58 92 96 96 96 67 96 95 57 47 96 90 76 76 49 20 28 34 35
16 16 14 14 10 11 14 15 14 14 16 17 22 41 59 80 97 98 91 96 98 71 46 98 88 88 71 37 17 20 40 71
22 18 18 14 10 10 14 16 17 20 27 19 21 50 58 70 87 96 96 98 99 94 49 81 93 64 54 47 37 55 73 91
33 18 22 15 11 11 16 17 16 22 33 26 23 60 76 85 82 94 95 96 99 94 66 89 51 48 86 57 92 74 96 97
37 26 26 17 13 14 16 17 16 22 34 28 43 72 95 100 97 96 94 92 98 96 96 87 85 92 85 74 94 94 80 89
43 33 29 23 15 17 17 17 20 26 28 33 45 94 97 100 97 98 99 95 81 97 93 90 80 76 84 96 98 95 87 100
53 39 31 27 15 17 18 17 22 23 27 37 60 95 97 96 97 98 89 96 98 97 92 92 93 93 95 96 97 90 98 88
58 40 32 31 17 16 18 15 23 20 33 62 81 97 98 100 98 89 94 96 94 96 73 82 84 89 92 95 87 87 94 81
62 41 36 31 18 17 15 21 28 19 41 58 77 97 98 96 96 89 83 89 94 94 83 82 82 88 94 97 86 86 85 82
60 42 32 29 18 17 13 24 36 17 24 45 73 93 95 97 95 93 98 82 90 100 97 94 81 86 91 92 83 82 90 86
58 40 29 27 19 16 14 24 37 15 20 32 81 100 95 96 92 99 94 83 87 84 95 100 88 84 84 92 77 78 80 81
65 46 27 22 19 15 16 26 43 18 24 44 72 97 97 96 96 96 93 78 79 78 100 100 94 86 74 80 91 90 84 84
71 52 35 20 20 14 16 21 34 38 21 35 62 94 97 96 96 95 92 89 81 66 90 91 90 94 87 93 95 97 97 97
89 48 38 22 20 15 16 18 24 44 28 42 46 97 97 96 96 98 95 92 92 61 62 75 95 99 100 93 96 97 97 96
78 41 35 23 20 16 18 19 18 33 45 47 47 76 96 97 97 96 93 94 84 86 81 78 82 90 98 95 96 98 93 98
69 38 34 26 20 17 21 20 17 23 37 42 51 49 93 97 97 97 96 95 81 65 64 71 87 87 96 96 100 100 96 96
78 52 43 32 23 19 23 19 20 20 35 33 51 45 56 93 97 96 96 92 61 69 76 69 81 87 94 95 94 97 100 96
80 65 51 41 22 22 24 22 22 20 25 33 34 59 50 69 87 96 97 96 96 90 83 85 95 99 99 97 97 94 96 96
76 64 57 26 22 24 26 26 25 18 24 31 47 64 68 70 87 95 98 96 96 97 96 96 97 96 96 98 98 96 97 96
Wind_Speed
26 25 24 25 21 22 23 25 26 28 28 26 21 30 30 28 28 27 22 11 11 16 17 21 19 21 22 22 20 20 26 28
26 25 23 22 21 21 23 25 28 31 31 30 28 27 29 25 30 30 21 21 15 20 24 24 24 24 26 24 25 28 29 26
25 25 23 22 22 22 24 26 28 31 32 31 30 28 29 22 16 22 20 19 14 23 24 24 25 26 26 26 25 26 26 29
29 26 23 23 24 25 25 27 28 31 33 32 31 29 30 27 24 21 30 19 18 23 27 27 24 25 29 32 30 33 30 35
33 30 26 23 23 26 26 28 29 34 32 34 30 28 32 31 27 22 25 19 17 18 25 26 25 31 32 32 32 32 19 15
35 30 31 24 23 25 27 30 31 34 34 32 30 28 27 21 22 26 28 29 20 16 28 27 29 26 24 28 21 11 7 9
31 31 31 29 24 24 27 30 33 33 31 31 26 28 25 23 24 30 33 34 21 24 27 23 24 26 25 18 19 15 13 13
33 31 31 30 25 23 26 30 32 30 29 22 27 29 30 32 30 27 34 30 23 25 21 21 24 23 24 21 21 18 17 17
34 31 32 31 26 22 26 29 30 28 21 21 30 26 28 37 35 32 33 29 29 27 25 30 27 28 24 19 23 21 20 20
35 29 34 28 24 21 24 27 28 27 24 25 34 27 30 33 42 38 39 38 33 29 31 31 29 28 26 26 25 22 22 22
34 31 35 28 23 21 22 25 27 26 25 25 37 30 35 37 41 42 39 44 37 34 36 34 33 31 31 27 26 24 25 24
32 31 33 28 21 20 20 24 26 25 24 27 32 25 35 38 42 38 40 42 41 38 38 35 33 32 30 30 29 26 26 24
32 34 34 25 20 19 18 22 24 22 21 25 36 26 38 40 47 44 43 36 36 37 37 37 35 34 33 31 29 24 26 23
33 34 34 24 19 17 18 18 22 20 20 21 32 22 29 44 47 51 46 35 38 36 35 34 36 37 36 32 31 28 26 26
33 35 34 24 17 16 16 17 20 21 18 17 19 20 23 30 46 51 45 41 35 33 34 36 38 39 36 36 34 31 31 30
35 37 30 22 17 17 15 14 18 20 15 18 13 14 27 32 41 46 44 41 39 34 33 32 35 35 35 36 33 31 33 35
34 37 31 21 17 16 14 14 17 18 15 15 17 13 10 38 45 45 45 39 35 34 31 29 32 34 34 33 34 33 36 32
32 35 30 20 19 16 13 12 14 17 17 14 15 16 17 21 37 44 45 32 33 33 30 30 31 32 35 37 36 36 34 33
34 34 30 21 20 17 13 13 15 16 17 17 17 19 21 21 24 24 31 33 33 34 33 34 29 28 35 36 34 33 32 30
34 30 31 24 21 18 14 15 17 15 17 17 17 21 23 27 28 27 40 37 34 34 38 38 35 35 33 35 37 34 33 29
Wind_Direction
304 303 315 321 323 316 302 301 303 301 300 301 285 275 271 280 267 257 252 219 240 238 195 202 212 216 227 230 237 228 234 225
299 304 313 319 315 307 299 302 303 303 302 300 298 280 280 284 248 232 229 228 255 225 197 201 213 218 232 227 225 229 238 239
297 300 307 313 309 301 298 303 304 302 303 296 295 282 273 273 227 221 221 240 251 210 197 205 217 219 233 227 225 227 232 244
297 295 300 306 306 303 303 307 310 307 303 292 288 279 264 261 237 227 235 254 248 208 212 206 218 224 226 227 220 230 241 243
294 296 297 300 301 302 306 306 310 309 301 288 277 268 263 262 241 227 214 222 222 211 217 211 212 225 230 235 237 240 216 190
291 296 294 295 295 298 305 304 310 305 299 284 281 262 270 246 239 219 206 214 217 231 227 218 220 225 240 240 251 185 194 190
285 290 290 290 290 297 302 303 312 302 291 283 267 280 259 238 218 214 209 215 220 241 227 223 214 221 233 221 194 194 196 201
277 283 286 286 286 295 300 307 312 300 289 263 279 270 237 230 220 223 219 206 203 207 210 213 197 200 206 198 196 196 199 206
273 281 282 281 284 294 301 309 313 301 277 265 279 261 239 229 219 211 205 200 195 197 186 184 187 189 187 197 203 196 207 213
268 277 279 279 280 292 303 314 314 298 272 271 288 251 237 223 217 209 211 209 196 200 192 186 188 189 192 197 203 202 210 215
266 271 271 274 277 290 304 316 310 295 283 282 297 247 226 227 217 212 214 211 209 206 198 192 192 196 197 198 205 205 217 216
263 269 266 267 272 288 304 312 312 299 291 289 308 253 232 213 204 208 209 208 200 197 196 198 203 204 200 204 210 212 220 223
256 265 263 261 268 283 299 311 316 301 301 301 321 253 227 210 207 200 192 187 190 194 197 203 207 212 212 210 213 218 227 232
254 261 263 254 263 278 293 310 316 304 297 303 324 216 192 200 193 201 200 203 204 200 198 207 216 215 218 215 220 228 234 239
251 251 256 248 255 270 286 307 310 307 294 300 317 205 191 200 198 205 203 215 210 205 205 209 216 220 224 226 226 233 243 246
239 242 247 241 248 262 280 301 304 302 302 296 295 292 223 204 200 197 206 209 206 216 221 220 220 222 230 235 239 245 251 255
232 238 241 236 239 254 272 295 297 294 301 294 280 256 269 205 203 210 216 216 213 215 218 221 217 216 224 235 241 243 250 255
236 240 241 232 235 244 267 286 299 293 289 290 276 247 238 225 212 215 208 207 215 215 215 218 218 219 226 235 240 243 247 251
235 242 242 230 230 239 256 269 291 289 283 284 276 248 238 244 250 231 220 210 215 221 221 218 227 235 237 236 231 233 244 250
233 237 242 225 227 237 245 269 285 278 282 276 277 241 227 240 247 245 226 224 220 221 228 231 234 234 245 234 235 246 253 253